Location: G�yn�k
(36.6721°N, 30.5542°E)
Time: 21:16:14
(UTC+00:00)

BREEZE-M DEB (TANK) - Pass Details

Date: 08 October 2020
Orbit: 333 x 12040 km, 49.7° (Epoch: 26 October)

Event Time Altitude Azimuth Distance (km) Brightness Sun altitude
Rises 21:50:16 0° 146° (SSE) 13,350 8.9 -59.6°
Reaches altitude 10° 22:08:28 10° 133° (SE) 14,345 9.0 -59.2°
Maximum altitude 23:09:31 25° 94° (E) 14,365 9.2 -54.1°
Drops below altitude 10° 23:52:46 10° 59° (ENE) 11,907 9.3 -48.0°
Sets 00:02:43 0° 50° (NE) 11,398 9.5 -46.4°
